Location: Helion Bumpstead
(52.0500°N, 0.4000°E)
Time: 21:36:08
(UTC+00:00)

Cosmos 2322 Rocket - Pass Details

Date: 15 November 2025
Orbit: 830 x 851 km, 71.0° (Epoch: 14 December)

Event Time Altitude Azimuth Distance (km) Brightness Sun altitude
Exits shadow 05:39:45 10° 328° (NNW) 2,489 4.2 -15.0°
Reaches altitude 10° 05:39:47 10° 328° (NNW) 2,486 4.2 -15.0°
Maximum altitude 05:41:51 12° 350° (N) 2,352 4.3 -14.7°
Drops below altitude 10° 05:43:57 10° 11° (NNE) 2,490 4.6 -14.4°
Sets 05:48:19 0° 43° (NE) 3,429 5.8 -13.7°
